Погода в Семибуграх

Россия / Астраханская область     46°09′42″N   48°15′00″E
темп.,
°C
ветер,
м/с
пор.,
м/с
влажн.,
%
обл.,
%
осадки,
мм/ч
давл.,
гПа
погр.,
м
13 мая, чт
чт1301:00+15юв22700 0.0 101534
04:00+14ююз22710 0.0 101514
07:00+17ю11620 0.0 1015108
10:00+22ююв34461 0.0 1015879
13:00+27ююв55330 0.0 10151130
16:00+27ююв56320 0.0 1016960
19:00+23ююв57450 0.0 1016481
22:00+18вюв35650 0.0 1017113
14 мая, пт
пт1401:00+18вюв34620 0.0 101765
04:00+19вюв46551 0.0 101772
07:00+22юв515500 0.0 1017373
10:00+29ююв812215 0.0 1018774
13:00+30ююв810163 0.0 10181005
16:00+30юв811134 0.0 10181123
19:00+26вюв611240 0.0 1018409
22:00+20вюв414430 0.0 1018260
15 мая, сб
сб1501:00+18вюв496014 0.0 1017133
04:00+19вюв512559 0.0 1016176
07:00+22юв515433 0.0 1018400
10:00+29юв811230 0.0 10181318
13:00+31юв88200 0.0 10182152
16:00+31юв78200 0.0 10171835
19:00+27вюв57290 0.0 1017371
22:00+21в47420 0.0 1017103
16 мая, вс
вс1601:00+20всв46420 0.0 101586
04:00+19в412620 0.0 1015203
07:00+23юв514440 0.0 1015428
10:00+30юв812230 0.0 10151611
13:00+31вюв910200 0.0 10151344
16:00+30вюв78200 0.0 10141197
19:00+26вюв510290 0.0 1014463
22:00+21в412450 0.0 1013208
17 мая, пн
пн1701:00+19в411510 0.0 1012189
04:00+19в511580 0.0 1012160
07:00+23вюв614400 0.0 1012404
10:00+29вюв811200 0.0 1012967
13:00+32юв811150 0.0 10122202
16:00+32юв912140 0.0 10112227
19:00+28вюв612250 0.0 1011495
22:00+21в412492 0.0 1012202